HB9KNR Weather Reports


Display with metric or nautical units.
time (UTC)temp
F
wind
direction
speed
MPH
gust
MPH
rain 1hr
in
rain 24hr
in
rain mn
in
humidity
%
barometer
mb
20260503195536 61 0.0 0.0 0.00 0.00 0.00 61 1014.5
20260503194536 61 0.0 0.0 0.00 0.00 0.00 60 1014.3
20260503193516 62 0.0 0.0 0.00 0.00 0.00 58 1014.2
20260503192536 62 0.0 0.0 0.00 0.00 0.00 57 1014.2
20260503191516 63 0.0 0.0 0.00 0.00 0.00 55 1014.1
20260503190516 63 0.0 0.0 0.00 0.00 0.00 54 1013.9
20260503185516 64 0.0 0.0 0.00 0.00 0.00 52 1013.8
20260503184516 64 0.0 0.0 0.00 0.00 0.00 52 1013.9
20260503183516 64 0.0 0.0 0.00 0.00 0.00 52 1013.8
20260503182516 64 0.0 0.0 0.00 0.00 0.00 51 1013.5
20260503181556 65 0.0 0.0 0.00 0.00 0.00 50 1013.2
20260503180556 65 0.0 0.0 0.00 0.00 0.00 50 1013.3
20260503175516 65 0.0 0.0 0.00 0.00 0.00 50 1013.2
20260503174516 66 0.0 0.0 0.00 0.00 0.00 49 1013.0
20260503173516 66 0.0 0.0 0.00 0.00 0.00 48 1012.8
20260503172516 67 0.0 0.0 0.00 0.00 0.00 47 1012.9
20260503171516 67 0.0 0.0 0.00 0.00 0.00 46 1012.7
20260503170516 68 0.0 0.0 0.00 0.00 0.00 43 1012.5
20260503150516 76 0.0 0.0 0.00 0.00 0.00 36 1012.1
20260503130538 76 0.0 0.0 0.00 0.00 0.00 39 1013.2
20260503110517 73 0.0 0.0 0.00 0.00 0.00 49 1014.2
20260503081517 63 0.0 0.0 0.00 0.00 0.00 68 1016.0
20260503080517 62 0.0 0.0 0.00 0.00 0.00 70 1015.9
20260503072517 58 0.0 0.0 0.00 0.00 0.00 80 1015.9
20260503071517 58 0.0 0.0 0.00 0.00 0.00 81 1015.9
20260503070537 57 0.0 0.0 0.00 0.00 0.00 81 1015.9
20260503054517 52 0.0 0.0 0.00 0.00 0.00 86 1015.8
20260503053537 52 0.0 0.0 0.00 0.00 0.00 86 1015.7
20260503052517 51 0.0 0.0 0.00 0.00 0.00 86 1015.7
20260503051517 51 0.0 0.0 0.00 0.00 0.00 86 1015.6
20260503050537 50 0.0 0.0 0.00 0.00 0.00 85 1015.6
20260503045517 50 0.0 0.0 0.00 0.00 0.00 85 1015.7
20260503044517 49 0.0 0.0 0.00 0.00 0.00 84 1015.6
20260503043517 49 0.0 0.0 0.00 0.00 0.00 83 1015.6
20260503042537 49 0.0 0.0 0.00 0.00 0.00 83 1015.7
20260503041557 50 0.0 0.0 0.00 0.00 0.00 82 1015.7
20260503040517 50 0.0 0.0 0.00 0.00 0.00 82 1015.7
20260503035517 50 0.0 0.0 0.00 0.00 0.00 81 1015.8
20260503034517 50 0.0 0.0 0.00 0.00 0.00 81 1015.8
20260503033537 50 0.0 0.0 0.00 0.00 0.00 81 1015.8
20260503032517 50 0.0 0.0 0.00 0.00 0.00 80 1015.9
20260503031517 51 0.0 0.0 0.00 0.00 0.00 80 1015.9
20260503030517 51 0.0 0.0 0.00 0.00 0.00 80 1016.0
20260503025517 51 0.0 0.0 0.00 0.00 0.00 80 1016.0
20260503024537 51 0.0 0.0 0.00 0.00 0.00 80 1016.0
20260503023517 51 0.0 0.0 0.00 0.00 0.00 79 1016.1
20260503022517 51 0.0 0.0 0.00 0.00 0.00 79 1016.2
20260503021537 51 0.0 0.0 0.00 0.00 0.00 77 1016.4
20260503020517 51 0.0 0.0 0.00 0.00 0.00 77 1016.3
20260503015517 52 0.0 0.0 0.00 0.00 0.00 76 1016.4
20260503014517 52 0.0 0.0 0.00 0.00 0.00 75 1016.3
20260503013517 52 0.0 0.0 0.00 0.00 0.00 74 1016.2
20260503012537 52 0.0 0.0 0.00 0.00 0.00 74 1016.4
20260503011517 52 0.0 0.0 0.00 0.00 0.00 72 1016.3
20260503010517 53 0.0 0.0 0.00 0.00 0.00 71 1016.3
20260503005517 53 0.0 0.0 0.00 0.00 0.00 71 1016.3
20260503004517 53 0.0 0.0 0.00 0.00 0.00 70 1016.2
20260503003517 53 0.0 0.0 0.00 0.00 0.00 69 1016.3
20260503002617 53 0.0 0.0 0.00 0.00 0.00 68 1016.3
20260503001517 54 0.0 0.0 0.00 0.00 0.00 68 1016.5
20260503000517 54 0.0 0.0 0.00 0.00 0.00 67 1016.5
20260502235517 54 0.0 0.0 0.00 0.00 0.00 67 1016.5
20260502234517 54 0.0 0.0 0.00 0.00 0.00 66 1016.6
20260502233517 54 0.0 0.0 0.00 0.00 0.00 66 1016.6
20260502232537 54 0.0 0.0 0.00 0.00 0.00 66 1016.6
20260502231517 54 0.0 0.0 0.00 0.00 0.00 66 1016.5
20260502230517 54 0.0 0.0 0.00 0.00 0.00 65 1016.5
20260502225517 54 0.0 0.0 0.00 0.00 0.00 64 1016.4
20260502224517 55 0.0 0.0 0.00 0.00 0.00 64 1016.4
20260502223537 55 0.0 0.0 0.00 0.00 0.00 63 1016.5
20260502222517 55 0.0 0.0 0.00 0.00 0.00 62 1016.5
20260502221517 56 0.0 0.0 0.00 0.00 0.00 61 1016.5
20260502220517 56 0.0 0.0 0.00 0.00 0.00 61 1016.5
20260502215517 56 0.0 0.0 0.00 0.00 0.00 60 1016.6
20260502214518 57 0.0 0.0 0.00 0.00 0.00 60 1016.4
20260502213517 57 0.0 0.0 0.00 0.00 0.00 59 1016.3
20260502212517 57 0.0 0.0 0.00 0.00 0.00 59 1016.2
20260502211517 57 0.0 0.0 0.00 0.00 0.00 58 1016.2
20260502210517 58 0.0 0.0 0.00 0.00 0.00 57 1016.3
20260502205517 58 0.0 0.0 0.00 0.00 0.00 56 1016.3
20260502204518 58 0.0 0.0 0.00 0.00 0.00 56 1016.2
20260502203517 59 0.0 0.0 0.00 0.00 0.00 56 1016.3
20260502202517 59 0.0 0.0 0.00 0.00 0.00 55 1016.4
20260502201517 60 0.0 0.0 0.00 0.00 0.00 55 1016.6
20260502200517 60 0.0 0.0 0.00 0.00 0.00 54 1016.6